SCP
0 0 0 0 0 0 0 0 0 0 0 0 0 0 0 0 0 0 0 0 0 0 0 0 0 0 -0 -0 -0 -0 -0 -0 -0 -0 0 0 0 0 0 0 0 0 0 0
0 0 0 0 0 0 0 0 0 0 0 0 0 0 0 0 0 0 0 0 0 0 0 0 -0 -0 -0 -0 -0 -0 -0 -0 -0 -0 -0 -0 -0 0 0 0 0 0 0 0
0 0 0 0 0 0 0 0 0 0 0 0 0 0 0 0 0 0 0 0 0 0 0 0 0 0 -0 -0 -0 -0 -0 -0 -0 -0 -0 -0 -0 -0 0 0 0 0 0 0
0 0 0 0 0 0 0 0 0 0 0 0 0 0 0 0 0 0 0 0 0 0 0 0 0 0 -0 -0 -0 0 0 0 -0 -0 -0 -0 -0 -0 0 -0 0 0 0 0
0 0 0 0 0 0 0 0 0 0 0 0 0 0 0 0 0 0 0 0 0 0 0 0 0 0 0 0 0 0 0 0 0 -0 -0 -0 -0 -0 -0 -0 -0 0 0 0
0 0 0 0 0 0 0 0 0 0 0 0 0 0 0 0 0 0 0 0 0 0 0 0 0 0 0 0 0 0 0 0 0 -0 -0 -0 -0 -0 -0 -0 -0 0 0 0
0 0 0 0 0 0 0 0 0 0 0 0 0 0 0 0 0 0 0 0 0 0 0 0 0 0 0 0 0 0 0 0 0 0 -0 -0 -0 -0 -0 0 -0 -0 0 0
0 0 0 0 0 0 0 0 0 0 0 0 0 0 0 0 0 0 0 0 0 0 0 0 0 0 0 0 -0 0 0 0 0 0 0 -0 -0 -0 -0 -0 0 -0 -0 0
0 0 0 0 0 0 0 0 0 0 0 0 0 0 0 0 0 0 0 0 0 0 0 0 0 0 0 0 -0 0 0 -0 0 0 0 0 -0 -0 -0 -0 0 0 -0 0
0 0 0 0 0 0 0 0 0 0 0 0 0 0 0 0 0 0 0 0 0 0 0 0 0 0 0 -0 -0 -0 0 -0 0 0 0 0 0 0 -0 -0 -0 -0 0 -0
0 0 0 0 0 0 0 0 0 0 0 0 0 0 0 0 0 0 0 0 0 0 0 0 0 0 0 -0 -0 0 0 0 0 0 0 0 0 0 -0 -0 -0 -0 0 -0
0 0 0 0 0 0 0 0 0 0 0 0 0 0 0 0 0 0 0 0 0 0 0 0 0 0 0 -0 -0 0 0 -0 -0 -0 0 0 0 0 -0 -0 -0 -0 -0 -0
0 0 0 0 0 0 0 0 0 0 0 0 0 0 0 0 0 0 0 0 0 0 0 0 0 0 0 -0 0 0 0 0 0 -0 -0 0 0 0 -0 0 -0 -0 -0 -0
0 0 0 0 0 0 0 0 0 0 0 0 0 0 0 0 0 0 0 0 0 0 0 0 0 0 0 0 0 0 0 0 0 0 -0 -0 -0 0 0 0 -0 -0 -0 -0
0 0 0 0 0 0 0 0 0 0 0 0 0 0 0 0 0 0 0 0 0 0 0 0 0 0 0 0 0 0 0 0 0 0 0 -0 -0 -0 -0 0 -0 -0 -0 -0
0 0 0 0 0 0 0 0 0 0 0 0 0 0 0 0 0 0 0 0 0 0 0 0 0 0 0 0 0 0 0 0 0 0 0 0 -0 -0 -0 -0 -0 -0 0 0
0 0 0 0 0 0 0 0 0 0 0 0 0 0 0 0 0 0 0 0 0 0 0 0 0 0 0 0 0 0 0 0 0 0 0 0 0 -0 -0 -0 -0 -0 0 0
0 0 0 0 0 0 0 0 0 0 0 0 0 0 0 0 0 0 0 0 0 0 0 0 0 0 0 0 0 0 0 0 -0 0 0 0 0 0 -0 0 0 0 0 0
0 0 0 0 0 0 0 0 0 0 0 0 0 0 0 0 0 0 0 0 0 0 0 0 0 0 0 0 0 0 0 0 -0 0 0 0 0 0 0 -0 -0 0 0 0
0 0 0 0 0 0 0 0 0 0 0 0 0 0 0 0 0 0 0 0 0 0 0 0 0 0 0 0 0 0 0 -0 -0 0 -0 0 0 0 0 -0 -0 0 0 0
0 0 0 0 0 0 0 0 0 0 0 0 0 0 0 0 0 0 0 0 0 0 0 0 0 0 0 0 0 0 -0 0 0 -0 0 0 0 0 0 0 -0 0 0 0
0 0 0 0 0 0 0 0 0 0 0 0 0 0 0 0 0 0 0 0 0 0 0 0 0 0 0 0 0 0 0 0 -0 -0 -0 -0 0 0 0 0 0 0 0 0
0 0 0 0 0 0 0 0 0 0 0 0 0 0 0 0 0 0 0 0 0 0 0 0 0 0 0 0 0 0 -0 -0 -0 -0 -0 -0 0 0 0 0 0 0 0 0
0 0 0 0 0 0 0 0 0 0 0 0 0 0 0 0 0 0 0 0 0 0 0 -0 0 0 0 0 0 0 -0 -0 -0 -0 -0 -0 0 0 0 0 0 0 0 0
0 0 0 0 0 0 0 0 0 0 0 0 0 0 0 0 0 0 0 0 0 0 0 -0 -0 0 0 0 0 0 -0 -0 -0 -0 -0 -0 0 0 0 0 0 0 0 0
0 0 0 0 0 0 0 0 0 0 0 0 0 0 0 0 0 0 0 0 0 0 0 -0 -0 0 -0 -0 0 -0 -0 -0 -0 -0 -0 -0 -0 0 0 0 -0 0 0 0
Wind_Speed_500mb
11 11 6 9 12 15 16 24 39 39 34 22 27 36 38 21 27 29 32 40 45 44 38 52 64 64 71 66 74 76 74 63 60 56 53 49 57 64 74 85 98 99 100 97
10 13 4 9 7 12 22 31 37 23 10 26 38 33 12 25 29 29 27 45 50 53 49 60 75 83 76 64 69 73 66 67 67 60 55 55 63 60 68 80 90 91 100 104
8 8 8 4 14 17 26 19 21 27 35 33 29 22 6 26 21 31 31 43 52 60 64 69 76 83 70 62 70 74 72 67 62 72 69 66 80 66 57 69 83 88 91 106
13 4 2 9 11 6 20 14 23 36 39 31 32 17 10 25 12 25 33 46 57 68 78 78 85 84 80 72 83 77 70 67 67 64 74 71 60 71 73 72 83 88 91 101
3 3 5 8 7 4 8 21 25 40 44 28 7 11 5 22 16 30 39 47 61 80 88 85 84 92 91 78 94 86 76 69 77 66 57 67 76 69 81 70 67 90 92 104
5 3 4 3 4 6 16 19 42 17 11 10 18 9 16 12 9 22 39 57 77 91 89 88 94 99 92 86 99 91 83 77 73 72 66 64 75 78 76 76 61 68 99 100
3 3 2 4 5 4 16 19 14 10 5 12 16 20 16 17 14 25 39 65 85 86 81 94 95 97 99 99 105 97 86 91 79 78 71 67 67 79 77 70 60 69 71 93
9 9 5 4 1 3 3 3 5 13 12 33 30 13 5 17 19 35 50 70 75 77 91 95 98 100 99 104 100 101 91 97 89 82 83 71 66 77 84 66 49 62 86 90
11 10 4 7 2 2 11 10 6 9 5 12 12 9 20 15 29 40 61 73 73 85 96 101 107 104 105 107 102 105 104 101 93 85 87 83 66 68 84 72 63 58 60 80
6 8 6 11 2 12 6 9 4 5 9 15 21 38 15 28 32 50 64 75 83 96 104 109 121 115 115 107 107 105 101 99 92 86 85 87 76 67 75 76 71 67 59 65
9 8 8 3 18 14 7 9 4 0 7 8 14 19 12 27 24 55 65 79 86 100 104 109 113 112 106 101 87 75 72 76 78 82 83 85 82 73 82 81 69 73 66 57
11 8 9 8 16 16 17 15 14 7 10 16 15 28 24 8 50 61 69 78 90 105 108 113 106 100 98 108 113 104 101 103 98 81 63 82 85 76 69 70 71 72 76 70
16 7 4 4 4 5 13 16 12 13 10 29 12 16 17 48 57 69 72 86 94 107 110 115 108 112 109 105 100 94 89 86 85 100 95 74 59 61 65 70 69 78 79 72
10 10 20 22 17 4 11 22 25 28 13 17 36 52 57 45 48 65 82 87 98 100 100 110 113 111 105 102 96 91 91 85 86 86 90 94 82 70 78 75 72 83 82 86
8 13 16 27 30 24 31 37 34 40 40 25 36 39 48 43 43 69 82 88 88 92 112 114 119 116 110 104 99 92 98 98 92 90 92 94 95 90 73 64 68 84 83 88
12 6 2 9 25 29 34 36 39 34 37 45 45 55 38 55 54 66 81 83 79 92 107 119 121 117 110 109 107 110 102 104 93 100 97 96 97 101 99 93 99 98 87 87
17 10 5 14 3 10 23 41 42 22 19 30 31 38 34 43 46 55 78 71 78 88 98 108 121 114 114 111 105 104 108 108 103 98 85 91 85 84 84 85 72 76 84 79
20 14 5 7 1 14 4 15 1 23 25 27 32 34 33 49 65 58 52 64 78 83 96 108 111 117 120 113 110 101 103 101 100 88 85 80 78 78 77 71 54 68 75 68
14 11 7 8 9 18 17 12 11 10 17 28 23 27 45 47 63 56 56 59 69 84 89 96 104 109 116 108 104 105 101 101 93 89 79 76 72 76 68 76 64 57 66 58
20 20 12 5 8 11 2 13 14 1 16 25 19 28 35 41 29 35 79 81 84 95 106 106 113 114 106 106 103 98 101 98 92 86 87 69 77 68 70 70 70 68 59 57
12 12 28 20 13 15 24 20 9 3 1 17 22 25 25 17 28 62 65 78 74 74 93 106 116 105 106 103 99 100 99 94 96 92 85 78 55 69 54 59 66 67 60 56
18 17 12 16 13 24 28 17 16 5 23 25 22 22 26 38 51 55 57 64 73 83 99 100 115 116 110 101 99 104 99 101 99 97 85 67 51 42 46 47 44 45 50 54
15 16 14 22 16 9 41 19 25 19 19 17 26 33 36 48 46 49 59 69 76 81 92 96 113 115 113 108 104 105 109 104 102 90 79 64 43 28 28 32 38 38 46 44
18 18 9 12 22 33 28 49 31 34 30 27 32 33 36 41 50 61 60 68 74 83 95 99 109 115 116 120 116 106 107 101 97 92 79 63 47 27 20 27 32 37 42 45
9 23 19 18 28 26 40 41 38 37 31 33 32 32 35 38 47 52 61 66 68 75 90 99 98 110 109 116 119 115 108 101 101 94 81 59 45 38 33 32 37 43 49 48
19 17 13 13 28 27 23 19 25 33 35 32 28 29 31 35 42 48 55 60 67 76 83 92 96 103 108 111 114 117 108 101 101 99 88 69 56 40 30 32 44 44 46 44
Wind_Direction_500mb
13 325 334 13 332 287 296 297 304 311 329 339 325 317 331 82 86 70 49 28 11 3 357 354 354 351 348 351 354 352 344 340 337 331 327 320 298 272 256 254 248 246 233 231
314 288 35 305 296 305 309 305 308 307 323 334 318 322 74 110 79 57 45 16 11 3 351 350 350 347 345 344 349 350 344 339 337 332 315 313 316 287 269 261 246 248 246 233
259 309 358 326 303 320 310 309 317 304 317 296 331 300 111 125 73 41 33 13 8 4 352 344 345 345 340 337 340 340 336 331 330 333 327 292 287 305 283 258 246 250 244 236
268 336 298 298 286 323 299 354 311 312 321 312 339 286 322 181 49 25 14 6 1 354 349 345 342 343 339 333 336 330 330 329 323 326 328 336 302 297 305 275 248 253 241 244
270 236 277 286 345 327 329 330 307 302 294 311 294 240 205 231 356 4 3 356 351 347 342 339 337 335 332 323 331 326 323 319 322 315 315 319 331 293 291 291 275 243 247 240
299 345 289 345 92 58 322 330 308 293 283 251 132 351 252 338 31 1 356 352 347 341 335 333 331 330 328 320 322 321 314 314 310 315 304 309 316 325 286 295 277 262 237 234
305 130 97 22 193 191 359 350 318 307 276 282 170 327 308 102 44 14 358 350 336 332 331 327 327 326 322 320 318 317 309 307 305 306 302 300 307 315 314 293 281 272 247 227
238 218 210 35 199 339 113 167 239 278 302 295 296 221 174 141 16 7 354 338 329 330 328 324 324 321 318 317 313 312 306 302 301 299 302 294 296 305 316 291 291 288 270 235
182 240 136 36 268 292 149 218 37 268 210 279 255 239 192 40 351 347 336 334 330 331 327 324 321 318 314 313 309 310 305 302 298 294 299 293 287 293 308 296 297 290 278 274
171 260 194 140 58 50 265 109 164 183 279 289 283 298 271 353 341 337 337 334 333 329 326 324 320 316 315 313 310 309 305 302 298 293 292 289 287 286 300 306 299 294 270 271
161 237 153 175 201 208 161 178 146 9 251 264 295 290 27 341 341 335 330 330 329 323 321 318 318 317 318 317 318 317 315 310 307 298 291 285 282 277 291 300 295 299 290 286
174 177 218 258 311 255 231 197 179 197 225 236 286 277 301 281 339 328 325 326 324 320 321 321 321 319 320 315 313 311 308 301 296 295 296 289 279 274 279 287 295 301 289 271
179 200 228 189 163 167 202 188 191 226 247 238 243 259 206 333 323 325 325 326 323 321 324 323 324 321 319 318 318 318 316 310 311 294 291 292 287 280 278 284 285 290 304 287
172 204 233 257 303 136 201 202 213 205 221 260 233 271 290 313 322 324 324 327 323 321 322 324 323 321 320 319 318 317 314 311 308 305 298 290 284 291 291 285 278 285 295 300
215 234 242 258 272 264 262 259 244 231 237 247 271 279 286 307 326 321 320 323 321 327 327 326 324 322 322 320 318 317 313 310 308 304 299 294 284 277 268 272 281 282 289 296
194 228 265 269 262 259 258 258 251 237 242 248 262 273 287 319 316 322 321 325 327 326 326 325 323 322 322 321 318 316 313 311 308 302 294 294 290 281 270 271 273 279 285 289
176 184 170 277 87 316 272 243 240 224 216 235 251 263 320 310 319 324 320 328 328 324 323 323 322 321 321 319 317 315 313 310 312 306 296 293 289 283 280 266 269 271 278 279
169 158 168 272 154 251 358 146 100 243 239 245 264 292 302 315 313 316 320 328 326 327 325 324 321 322 323 320 318 315 314 314 310 312 299 295 290 284 280 257 261 263 271 273
155 152 214 237 213 319 281 228 183 211 256 247 266 298 314 316 314 314 332 332 326 325 321 321 320 321 321 322 321 319 316 315 313 311 310 299 295 284 278 257 256 263 270 267
192 203 204 171 233 255 322 158 138 256 281 144 314 310 318 329 321 317 328 331 330 330 327 328 328 324 325 325 326 322 318 317 315 315 307 307 294 286 272 256 261 257 268 267
168 197 219 217 243 275 255 185 142 242 309 290 319 304 313 307 300 303 315 321 324 321 323 330 333 324 326 327 331 326 322 318 317 317 311 301 299 287 269 257 251 254 261 263
169 184 201 207 211 262 188 127 200 262 303 300 304 304 300 300 309 313 317 321 324 327 334 339 339 333 335 333 335 331 325 324 321 317 317 310 295 285 276 260 255 255 256 265
199 211 178 196 205 239 188 209 212 267 275 270 287 300 309 312 311 315 321 327 328 332 335 340 344 340 345 344 339 335 333 329 332 331 329 324 312 287 280 260 251 256 260 270
229 194 225 173 232 236 223 234 264 272 272 267 288 299 311 308 316 322 327 330 331 336 341 345 347 346 343 352 350 347 339 344 344 338 336 330 319 285 247 258 254 259 260 264
184 156 221 246 258 254 250 253 257 262 249 268 284 302 308 312 320 325 329 332 332 334 346 349 348 349 347 353 359 358 356 358 352 343 342 341 327 299 265 248 258 258 262 258
182 199 198 231 234 232 249 240 232 233 243 263 278 298 309 317 324 329 332 335 337 340 347 351 353 353 357 359 1 3 5 6 2 354 354 -0 0 337 293 261 265 262 269 270
Wind_Speed_850mb
11 11 6 9 12 15 16 24 39 39 34 22 27 36 38 21 27 29 32 40 45 44 38 52 64 64 71 66 74 76 74 63 60 56 53 49 57 64 74 85 98 99 100 97
10 13 4 9 7 12 22 31 37 23 10 26 38 33 12 25 29 29 27 45 50 53 49 60 75 83 76 64 69 73 66 67 67 60 55 55 63 60 68 80 90 91 100 104
8 8 8 4 14 17 26 19 21 27 35 33 29 22 6 26 21 31 31 43 52 60 64 69 76 83 70 62 70 74 72 67 62 72 69 66 80 66 57 69 83 88 91 106
13 4 2 9 11 6 20 14 23 36 39 31 32 17 10 25 12 25 33 46 57 68 78 78 85 84 80 72 83 77 70 67 67 64 74 71 60 71 73 72 83 88 91 101
3 3 5 8 7 4 8 21 25 40 44 28 7 11 5 22 16 30 39 47 61 80 88 85 84 92 91 78 94 86 76 69 77 66 57 67 76 69 81 70 67 90 92 104
5 3 4 3 4 6 16 19 42 17 11 10 18 9 16 12 9 22 39 57 77 91 89 88 94 99 92 86 99 91 83 77 73 72 66 64 75 78 76 76 61 68 99 100
3 3 2 4 5 4 16 19 14 10 5 12 16 20 16 17 14 25 39 65 85 86 81 94 95 97 99 99 105 97 86 91 79 78 71 67 67 79 77 70 60 69 71 93
9 9 5 4 1 3 3 3 5 13 12 33 30 13 5 17 19 35 50 70 75 77 91 95 98 100 99 104 100 101 91 97 89 82 83 71 66 77 84 66 49 62 86 90
11 10 4 7 2 2 11 10 6 9 5 12 12 9 20 15 29 40 61 73 73 85 96 101 107 104 105 107 102 105 104 101 93 85 87 83 66 68 84 72 63 58 60 80
6 8 6 11 2 12 6 9 4 5 9 15 21 38 15 28 32 50 64 75 83 96 104 109 121 115 115 107 107 105 101 99 92 86 85 87 76 67 75 76 71 67 59 65
9 8 8 3 18 14 7 9 4 0 7 8 14 19 12 27 24 55 65 79 86 100 104 109 113 112 106 101 87 75 72 76 78 82 83 85 82 73 82 81 69 73 66 57
11 8 9 8 16 16 17 15 14 7 10 16 15 28 24 8 50 61 69 78 90 105 108 113 106 100 98 108 113 104 101 103 98 81 63 82 85 76 69 70 71 72 76 70
16 7 4 4 4 5 13 16 12 13 10 29 12 16 17 48 57 69 72 86 94 107 110 115 108 112 109 105 100 94 89 86 85 100 95 74 59 61 65 70 69 78 79 72
10 10 20 22 17 4 11 22 25 28 13 17 36 52 57 45 48 65 82 87 98 100 100 110 113 111 105 102 96 91 91 85 86 86 90 94 82 70 78 75 72 83 82 86
8 13 16 27 30 24 31 37 34 40 40 25 36 39 48 43 43 69 82 88 88 92 112 114 119 116 110 104 99 92 98 98 92 90 92 94 95 90 73 64 68 84 83 88
12 6 2 9 25 29 34 36 39 34 37 45 45 55 38 55 54 66 81 83 79 92 107 119 121 117 110 109 107 110 102 104 93 100 97 96 97 101 99 93 99 98 87 87
17 10 5 14 3 10 23 41 42 22 19 30 31 38 34 43 46 55 78 71 78 88 98 108 121 114 114 111 105 104 108 108 103 98 85 91 85 84 84 85 72 76 84 79
20 14 5 7 1 14 4 15 1 23 25 27 32 34 33 49 65 58 52 64 78 83 96 108 111 117 120 113 110 101 103 101 100 88 85 80 78 78 77 71 54 68 75 68
14 11 7 8 9 18 17 12 11 10 17 28 23 27 45 47 63 56 56 59 69 84 89 96 104 109 116 108 104 105 101 101 93 89 79 76 72 76 68 76 64 57 66 58
20 20 12 5 8 11 2 13 14 1 16 25 19 28 35 41 29 35 79 81 84 95 106 106 113 114 106 106 103 98 101 98 92 86 87 69 77 68 70 70 70 68 59 57
12 12 28 20 13 15 24 20 9 3 1 17 22 25 25 17 28 62 65 78 74 74 93 106 116 105 106 103 99 100 99 94 96 92 85 78 55 69 54 59 66 67 60 56
18 17 12 16 13 24 28 17 16 5 23 25 22 22 26 38 51 55 57 64 73 83 99 100 115 116 110 101 99 104 99 101 99 97 85 67 51 42 46 47 44 45 50 54
15 16 14 22 16 9 41 19 25 19 19 17 26 33 36 48 46 49 59 69 76 81 92 96 113 115 113 108 104 105 109 104 102 90 79 64 43 28 28 32 38 38 46 44
18 18 9 12 22 33 28 49 31 34 30 27 32 33 36 41 50 61 60 68 74 83 95 99 109 115 116 120 116 106 107 101 97 92 79 63 47 27 20 27 32 37 42 45
9 23 19 18 28 26 40 41 38 37 31 33 32 32 35 38 47 52 61 66 68 75 90 99 98 110 109 116 119 115 108 101 101 94 81 59 45 38 33 32 37 43 49 48
19 17 13 13 28 27 23 19 25 33 35 32 28 29 31 35 42 48 55 60 67 76 83 92 96 103 108 111 114 117 108 101 101 99 88 69 56 40 30 32 44 44 46 44
Wind_Direction_850mb
13 325 334 13 332 287 296 297 304 311 329 339 325 317 331 82 86 70 49 28 11 3 357 354 354 351 348 351 354 352 344 340 337 331 327 320 298 272 256 254 248 246 233 231
314 288 35 305 296 305 309 305 308 307 323 334 318 322 74 110 79 57 45 16 11 3 351 350 350 347 345 344 349 350 344 339 337 332 315 313 316 287 269 261 246 248 246 233
259 309 358 326 303 320 310 309 317 304 317 296 331 300 111 125 73 41 33 13 8 4 352 344 345 345 340 337 340 340 336 331 330 333 327 292 287 305 283 258 246 250 244 236
268 336 298 298 286 323 299 354 311 312 321 312 339 286 322 181 49 25 14 6 1 354 349 345 342 343 339 333 336 330 330 329 323 326 328 336 302 297 305 275 248 253 241 244
270 236 277 286 345 327 329 330 307 302 294 311 294 240 205 231 356 4 3 356 351 347 342 339 337 335 332 323 331 326 323 319 322 315 315 319 331 293 291 291 275 243 247 240
299 345 289 345 92 58 322 330 308 293 283 251 132 351 252 338 31 1 356 352 347 341 335 333 331 330 328 320 322 321 314 314 310 315 304 309 316 325 286 295 277 262 237 234
305 130 97 22 193 191 359 350 318 307 276 282 170 327 308 102 44 14 358 350 336 332 331 327 327 326 322 320 318 317 309 307 305 306 302 300 307 315 314 293 281 272 247 227
238 218 210 35 199 339 113 167 239 278 302 295 296 221 174 141 16 7 354 338 329 330 328 324 324 321 318 317 313 312 306 302 301 299 302 294 296 305 316 291 291 288 270 235
182 240 136 36 268 292 149 218 37 268 210 279 255 239 192 40 351 347 336 334 330 331 327 324 321 318 314 313 309 310 305 302 298 294 299 293 287 293 308 296 297 290 278 274
171 260 194 140 58 50 265 109 164 183 279 289 283 298 271 353 341 337 337 334 333 329 326 324 320 316 315 313 310 309 305 302 298 293 292 289 287 286 300 306 299 294 270 271
161 237 153 175 201 208 161 178 146 9 251 264 295 290 27 341 341 335 330 330 329 323 321 318 318 317 318 317 318 317 315 310 307 298 291 285 282 277 291 300 295 299 290 286
174 177 218 258 311 255 231 197 179 197 225 236 286 277 301 281 339 328 325 326 324 320 321 321 321 319 320 315 313 311 308 301 296 295 296 289 279 274 279 287 295 301 289 271
179 200 228 189 163 167 202 188 191 226 247 238 243 259 206 333 323 325 325 326 323 321 324 323 324 321 319 318 318 318 316 310 311 294 291 292 287 280 278 284 285 290 304 287
172 204 233 257 303 136 201 202 213 205 221 260 233 271 290 313 322 324 324 327 323 321 322 324 323 321 320 319 318 317 314 311 308 305 298 290 284 291 291 285 278 285 295 300
215 234 242 258 272 264 262 259 244 231 237 247 271 279 286 307 326 321 320 323 321 327 327 326 324 322 322 320 318 317 313 310 308 304 299 294 284 277 268 272 281 282 289 296
194 228 265 269 262 259 258 258 251 237 242 248 262 273 287 319 316 322 321 325 327 326 326 325 323 322 322 321 318 316 313 311 308 302 294 294 290 281 270 271 273 279 285 289
176 184 170 277 87 316 272 243 240 224 216 235 251 263 320 310 319 324 320 328 328 324 323 323 322 321 321 319 317 315 313 310 312 306 296 293 289 283 280 266 269 271 278 279
169 158 168 272 154 251 358 146 100 243 239 245 264 292 302 315 313 316 320 328 326 327 325 324 321 322 323 320 318 315 314 314 310 312 299 295 290 284 280 257 261 263 271 273
155 152 214 237 213 319 281 228 183 211 256 247 266 298 314 316 314 314 332 332 326 325 321 321 320 321 321 322 321 319 316 315 313 311 310 299 295 284 278 257 256 263 270 267
192 203 204 171 233 255 322 158 138 256 281 144 314 310 318 329 321 317 328 331 330 330 327 328 328 324 325 325 326 322 318 317 315 315 307 307 294 286 272 256 261 257 268 267
168 197 219 217 243 275 255 185 142 242 309 290 319 304 313 307 300 303 315 321 324 321 323 330 333 324 326 327 331 326 322 318 317 317 311 301 299 287 269 257 251 254 261 263
169 184 201 207 211 262 188 127 200 262 303 300 304 304 300 300 309 313 317 321 324 327 334 339 339 333 335 333 335 331 325 324 321 317 317 310 295 285 276 260 255 255 256 265
199 211 178 196 205 239 188 209 212 267 275 270 287 300 309 312 311 315 321 327 328 332 335 340 344 340 345 344 339 335 333 329 332 331 329 324 312 287 280 260 251 256 260 270
229 194 225 173 232 236 223 234 264 272 272 267 288 299 311 308 316 322 327 330 331 336 341 345 347 346 343 352 350 347 339 344 344 338 336 330 319 285 247 258 254 259 260 264
184 156 221 246 258 254 250 253 257 262 249 268 284 302 308 312 320 325 329 332 332 334 346 349 348 349 347 353 359 358 356 358 352 343 342 341 327 299 265 248 258 258 262 258
182 199 198 231 234 232 249 240 232 233 243 263 278 298 309 317 324 329 332 335 337 340 347 351 353 353 357 359 1 3 5 6 2 354 354 -0 0 337 293 261 265 262 269 270